Weather History for KGEV - August, 2013

Change the Weather History Date:

Wednesday, August 28, 2013

  Actual Average Record
Temperature  
Mean Temperature 74 °F -  
Max Temperature 79 °F 79 °F 88 °F (1990)
Min Temperature 69 °F 56 °F 39 °F (1968)
Cooling Degree Days 9    
Growing Degree Days 24 (Base 50)    
Moisture  
Dew Point 61 °F    
Average Humidity 66    
Maximum Humidity 76    
Minimum Humidity 48    
Precipitation  
Precipitation 0.00 in - - ()
Sea Level Pressure  
Sea Level Pressure 30.12 in    
Wind  
Wind Speed 12 mph (West)    
Max Wind Speed 25 mph    
Max Gust Speed 37 mph    
Visibility 9 miles    
Events      
Averages and records for this station are not official NWS values.
T = Trace of Precipitation, MM = Missing Value Source: NWS Daily Summary

Daily Weather History Graph

Daily Weather History Graph

Search for Another Location

Airport or City:

Trip Planner

Search our weather history database for the weather conditions in past years. The results will help you decide how hot, cold, wet, or windy it might be!

Date:

Astronomy

Aug. 28, 2013 Rise Set
Actual Time 6:54 AM EDT 7:58 PM EDT
Civil Twilight 6:27 AM EDT 8:25 PM EDT
Nautical Twilight 5:55 AM EDT 8:56 PM EDT
Astronomical Twilight 5:23 AM EDT 9:29 PM EDT
Moon 12:05 AM EDT 2:30 PM EDT
Length of Visible Light 13h 57m
Length of Day
13h 04m
Waning Gibbous, 47% of the Moon is Illuminated
Aug 28
Waning Gibbous
Sep 5
New
Sep 12
First Quarter
Sep 19
Full
Sep 26
Last Quarter

Hourly Weather History & Observations

Time (EDT) Temp. Dew Point Humidity Pressure Visibility Wind Dir Wind Speed Gust Speed Precip Events Conditions
12:15 AM 69.8 °F 61.9 °F 76% 30.17 in 7.0 mi West 13.8 mph 18.4 mph N/A   Scattered Clouds
12:35 AM 69.8 °F 61.9 °F 76% 30.17 in 7.0 mi WNW 11.5 mph - N/A   Scattered Clouds
12:55 AM 70.0 °F 61.7 °F 75% 30.17 in 7.0 mi West 12.7 mph 18.4 mph N/A   Scattered Clouds
1:15 AM 70.0 °F 61.9 °F 75% 30.17 in 7.0 mi WNW 9.2 mph 19.6 mph N/A   Scattered Clouds
1:35 AM 69.8 °F 61.7 °F 75% 30.16 in 7.0 mi West 12.7 mph 20.7 mph N/A   Scattered Clouds
1:55 AM 69.8 °F 61.3 °F 74% 30.15 in 7.0 mi WNW 12.7 mph 17.3 mph N/A   Clear
2:15 AM 69.8 °F 61.7 °F 75% 30.15 in 7.0 mi West 9.2 mph 18.4 mph N/A   Clear
2:35 AM 69.8 °F 61.2 °F 74% 30.14 in 7.0 mi WNW 12.7 mph - N/A   Clear
2:55 AM 70.0 °F 60.8 °F 73% 30.14 in 10.0 mi WNW 11.5 mph 18.4 mph N/A   Scattered Clouds
3:15 AM 70.2 °F 60.8 °F 72% 30.13 in 10.0 mi WNW 10.4 mph - N/A   Mostly Cloudy
3:35 AM 69.8 °F 61.3 °F 74% 30.13 in 7.0 mi West 5.8 mph - N/A   Mostly Cloudy
3:55 AM 69.6 °F 61.3 °F 75% 30.12 in 7.0 mi West 12.7 mph 17.3 mph N/A   Scattered Clouds
4:15 AM 69.3 °F 61.3 °F 76% 30.12 in 7.0 mi West 6.9 mph 18.4 mph N/A   Scattered Clouds
4:35 AM 69.8 °F 60.8 °F 73% 30.11 in 10.0 mi WNW 17.3 mph 26.5 mph N/A   Scattered Clouds
4:55 AM 69.8 °F 60.8 °F 73% 30.12 in 10.0 mi West 17.3 mph 25.3 mph N/A   Clear
5:15 AM 69.8 °F 60.8 °F 73% 30.12 in 10.0 mi WNW 15.0 mph 21.9 mph N/A   Clear
5:35 AM 69.6 °F 61.3 °F 75% 30.12 in 10.0 mi West 16.1 mph 21.9 mph N/A   Clear
5:55 AM 69.4 °F 61.3 °F 75% 30.12 in 10.0 mi WNW 13.8 mph 21.9 mph N/A   Clear
6:15 AM 69.3 °F 61.3 °F 76% 30.13 in 10.0 mi WNW 15.0 mph 20.7 mph N/A   Clear
6:35 AM 69.6 °F 61.0 °F 74% 30.13 in 10.0 mi West 11.5 mph - N/A   Clear
6:55 AM 70.0 °F 60.4 °F 72% 30.13 in 10.0 mi West 9.2 mph 21.9 mph N/A   Clear
7:15 AM 70.0 °F 60.3 °F 71% 30.14 in 10.0 mi West 8.1 mph 17.3 mph N/A   Clear
7:35 AM 70.0 °F 60.8 °F 73% 30.14 in 10.0 mi West 9.2 mph - N/A   Clear
7:55 AM 69.8 °F 61.7 °F 75% 30.14 in 7.0 mi West 12.7 mph - N/A   Clear
8:15 AM 70.0 °F 61.9 °F 75% 30.14 in 7.0 mi West 9.2 mph - N/A   Clear
8:35 AM 70.7 °F 61.9 °F 74% 30.14 in 7.0 mi West 12.7 mph - N/A   Clear
8:55 AM 70.3 °F 61.9 °F 74% 30.15 in 7.0 mi WNW 8.1 mph 17.3 mph N/A   Clear
9:15 AM 71.1 °F 62.1 °F 73% 30.15 in 7.0 mi West 11.5 mph - N/A   Scattered Clouds
9:35 AM 71.8 °F 62.1 °F 71% 30.15 in 7.0 mi West 9.2 mph 17.3 mph N/A   Clear
9:55 AM 73.4 °F 62.2 °F 68% 30.16 in 7.0 mi West 12.7 mph 16.1 mph N/A   Scattered Clouds
10:15 AM 73.8 °F 62.2 °F 67% 30.16 in 7.0 mi West 8.1 mph - N/A   Scattered Clouds
10:35 AM 73.0 °F 62.6 °F 70% 30.16 in 7.0 mi West 9.2 mph - N/A   Scattered Clouds
10:55 AM 73.4 °F 62.6 °F 69% 30.17 in 10.0 mi West 10.4 mph - N/A   Scattered Clouds
11:15 AM 73.9 °F 62.6 °F 68% 30.17 in 7.0 mi West 6.9 mph - N/A   Mostly Cloudy
11:35 AM 73.6 °F 62.6 °F 68% 30.17 in 7.0 mi West 10.4 mph - N/A   Mostly Cloudy
11:55 AM 74.3 °F 62.8 °F 67% 30.17 in 7.0 mi West 11.5 mph - N/A   Scattered Clouds
12:15 PM 74.1 °F 62.6 °F 67% 30.17 in 10.0 mi West 10.4 mph - N/A   Scattered Clouds
12:35 PM 74.7 °F 62.8 °F 66% 30.16 in 7.0 mi West 10.4 mph - N/A   Clear
12:55 PM 75.7 °F 62.8 °F 64% 30.15 in 10.0 mi West 9.2 mph 18.4 mph N/A   Clear
1:15 PM 77.9 °F 61.7 °F 57% 30.15 in 10.0 mi WNW 11.5 mph - N/A   Scattered Clouds
1:35 PM 78.6 °F 60.8 °F 54% 30.14 in 10.0 mi West 10.4 mph 17.3 mph N/A   Mostly Cloudy
1:55 PM 78.6 °F 60.1 °F 53% 30.14 in 10.0 mi West 9.2 mph 16.1 mph N/A   Scattered Clouds
2:15 PM 79.3 °F 60.1 °F 52% 30.14 in 10.0 mi West 9.2 mph 16.1 mph N/A   Scattered Clouds
2:35 PM 79.5 °F 61.0 °F 53% 30.13 in 10.0 mi West 11.5 mph - N/A   Scattered Clouds
2:55 PM 78.6 °F 61.2 °F 55% 30.12 in 10.0 mi West 10.4 mph 16.1 mph N/A   Mostly Cloudy
3:15 PM 78.6 °F 61.3 °F 55% 30.12 in 10.0 mi WNW 9.2 mph 19.6 mph N/A   Mostly Cloudy
3:35 PM 79.2 °F 60.4 °F 53% 30.11 in 10.0 mi West 11.5 mph 17.3 mph N/A   Scattered Clouds
3:55 PM 79.0 °F 59.7 °F 52% 30.11 in 10.0 mi WNW 8.1 mph - N/A   Clear
4:15 PM 79.9 °F 58.8 °F 48% 30.11 in 10.0 mi West 9.2 mph - N/A   Scattered Clouds
4:35 PM 79.7 °F 59.4 °F 50% 30.11 in 10.0 mi West 10.4 mph 17.3 mph N/A   Scattered Clouds
4:55 PM 79.7 °F 58.6 °F 48% 30.10 in 10.0 mi WNW 11.5 mph 20.7 mph N/A   Clear
5:15 PM 79.2 °F 59.4 °F 51% 30.09 in 10.0 mi West 6.9 mph - N/A   Clear
5:35 PM 79.3 °F 58.5 °F 49% 30.09 in 10.0 mi WNW 11.5 mph 18.4 mph N/A   Clear
5:55 PM 77.9 °F 59.5 °F 53% 30.09 in 10.0 mi West 11.5 mph 16.1 mph N/A   Scattered Clouds
6:15 PM 77.5 °F 60.4 °F 55% 30.09 in 10.0 mi West 10.4 mph - N/A   Mostly Cloudy
6:35 PM 77.2 °F 60.3 °F 56% 30.09 in 10.0 mi West 12.7 mph - N/A   Scattered Clouds
6:55 PM 76.8 °F 60.6 °F 57% 30.09 in 10.0 mi West 13.8 mph 17.3 mph N/A   Scattered Clouds
7:15 PM 75.7 °F 60.8 °F 60% 30.09 in 10.0 mi West 10.4 mph 19.6 mph N/A   Clear
7:35 PM 74.8 °F 61.0 °F 62% 30.09 in 10.0 mi West 8.1 mph - N/A   Clear
7:55 PM 74.3 °F 61.2 °F 63% 30.09 in 10.0 mi West 6.9 mph - N/A   Scattered Clouds
8:15 PM 73.9 °F 61.2 °F 64% 30.08 in 10.0 mi West 13.8 mph 18.4 mph N/A   Clear
8:35 PM 73.9 °F 61.2 °F 64% 30.08 in 10.0 mi West 16.1 mph 23.0 mph N/A   Clear
8:55 PM 74.1 °F 60.8 °F 63% 30.07 in 10.0 mi West 19.6 mph 28.8 mph N/A   Clear
9:15 PM 73.8 °F 60.8 °F 64% 30.06 in 10.0 mi West 19.6 mph 26.5 mph N/A   Clear
9:35 PM 73.6 °F 60.8 °F 64% 30.06 in 10.0 mi WNW 21.9 mph 34.5 mph N/A   Clear
9:55 PM 73.4 °F 60.4 °F 64% 30.06 in 10.0 mi West 25.3 mph 34.5 mph N/A   Clear
10:15 PM 73.4 °F 60.8 °F 65% 30.06 in 10.0 mi West 21.9 mph 31.1 mph N/A   Scattered Clouds
10:35 PM 73.2 °F 60.8 °F 65% 30.07 in 10.0 mi West 21.9 mph 35.7 mph N/A   Clear
10:55 PM 73.6 °F 59.9 °F 62% 30.07 in 10.0 mi WNW 23.0 mph 33.4 mph N/A   Scattered Clouds
11:15 PM 73.8 °F 60.1 °F 62% 30.07 in 10.0 mi WNW 19.6 mph 31.1 mph N/A   Clear
11:35 PM 73.4 °F 60.8 °F 65% 30.06 in 10.0 mi WNW 23.0 mph 36.8 mph N/A   Scattered Clouds
11:55 PM 72.1 °F 61.7 °F 70% 30.05 in 10.0 mi West 17.3 mph 24.2 mph N/A   Mostly Cloudy